Terug naar catalogus

GLOBALSTAR M097

ActiefCommunicatieLEO
NORAD 39072·PAYLOAD·🇺🇸 United States

Gelanceerd Feb 6, 2013 vanaf Baikonur Cosmodrome

Loading…

Volgende Passages (komende 24 uur)

TLE

VersSource: Space-Track

Epoch: Sep 14, 2026, 13:28 UTC

1 39072U 13005A   26257.56148266 -.00000100  00000-0  22171-4 0  9999
2 39072  52.0072 331.2713 0000568 120.6495 239.4427 12.62271230628198

Volg GLOBALSTAR M097 in realtime met AllMySat

Download on the App Store